QPF
0.00 0.00 0.00 0.00 0.00 0.00 0.00 0.00 0.00 0.00 0.00 0.00 0.00 0.00 0.00 0.00 0.00 0.00 0.00 0.00 0.00 0.00 0.00 0.00 0.00 0.00 0.00 0.00 0.00 0.00 0.00 0.00 0.00 0.00 0.00 0.00 0.00 0.00 0.00 0.00 0.00 0.00 0.00 0.00
0.00 0.00 0.00 0.00 0.00 0.00 0.00 0.00 0.00 0.00 0.00 0.00 0.00 0.00 0.00 0.00 0.00 0.00 0.00 0.00 0.00 0.00 0.00 0.00 0.00 0.00 0.00 0.00 0.00 0.00 0.00 0.00 0.00 0.00 0.00 0.00 0.00 0.00 0.00 0.00 0.00 0.00 0.00 0.00
0.00 0.00 0.00 0.00 0.00 0.00 0.00 0.00 0.00 0.00 0.00 0.00 0.00 0.00 0.00 0.00 0.00 0.00 0.00 0.00 0.00 0.00 0.00 0.00 0.00 0.00 0.00 0.00 0.00 0.00 0.00 0.00 0.00 0.00 0.00 0.00 0.00 0.00 0.00 0.00 0.00 0.00 0.00 0.00
0.00 0.00 0.00 0.00 0.00 0.00 0.00 0.00 0.00 0.00 0.00 0.00 0.00 0.00 0.00 0.00 0.00 0.00 0.00 0.00 0.00 0.00 0.00 0.00 0.00 0.00 0.00 0.00 0.00 0.00 0.00 0.00 0.00 0.00 0.00 0.00 0.00 0.00 0.00 0.00 0.00 0.00 0.00 0.00
0.00 0.00 0.00 0.00 0.00 0.00 0.00 0.00 0.00 0.00 0.00 0.00 0.00 0.00 0.00 0.00 0.00 0.00 0.00 0.00 0.00 0.00 0.00 0.00 0.00 0.00 0.00 0.00 0.00 0.00 0.00 0.00 0.00 0.00 0.00 0.00 0.00 0.00 0.00 0.00 0.00 0.00 0.00 0.00
0.00 0.00 0.00 0.00 0.00 0.00 0.00 0.00 0.00 0.00 0.00 0.00 0.00 0.00 0.00 0.00 0.00 0.00 0.00 0.00 0.00 0.00 0.00 0.00 0.00 0.00 0.00 0.00 0.00 0.00 0.00 0.00 0.00 0.00 0.00 0.00 0.00 0.00 0.00 0.00 0.00 0.00 0.00 0.00
0.00 0.00 0.00 0.00 0.00 0.00 0.00 0.00 0.00 0.00 0.00 0.00 0.00 0.00 0.00 0.00 0.00 0.00 0.00 0.00 0.00 0.00 0.00 0.00 0.00 0.00 0.00 0.00 0.00 0.00 0.00 0.00 0.00 0.00 0.00 0.00 0.00 0.00 0.00 0.00 0.00 0.00 0.00 0.00
0.00 0.00 0.00 0.00 0.00 0.00 0.00 0.00 0.00 0.00 0.00 0.00 0.00 0.00 0.00 0.00 0.00 0.00 0.00 0.00 0.00 0.00 0.00 0.00 0.00 0.00 0.00 0.00 0.00 0.00 0.00 0.00 0.00 0.00 0.00 0.00 0.00 0.00 0.00 0.00 0.00 0.00 0.00 0.00
0.00 0.00 0.00 0.00 0.00 0.00 0.00 0.00 0.00 0.00 0.00 0.00 0.00 0.00 0.00 0.00 0.00 0.00 0.00 0.00 0.00 0.00 0.00 0.00 0.00 0.00 0.00 0.00 0.00 0.00 0.00 0.00 0.00 0.00 0.00 0.00 0.00 0.00 0.00 0.00 0.00 0.00 0.00 0.00
0.00 0.00 0.00 0.00 0.00 0.00 0.00 0.00 0.00 0.00 0.00 0.00 0.00 0.00 0.00 0.00 0.00 0.00 0.00 0.00 0.00 0.00 0.00 0.00 0.00 0.00 0.00 0.00 0.00 0.00 0.00 0.00 0.00 0.00 0.00 0.00 0.00 0.00 0.00 0.00 0.00 0.00 0.00 0.00
0.00 0.00 0.00 0.00 0.00 0.00 0.00 0.00 0.00 0.00 0.00 0.00 0.00 0.00 0.00 0.00 0.00 0.00 0.00 0.00 0.00 0.00 0.00 0.00 0.00 0.00 0.00 0.00 0.00 0.00 0.00 0.00 0.00 0.00 0.00 0.00 0.00 0.00 0.00 0.00 0.00 0.00 0.00 0.00
0.00 0.00 0.00 0.00 0.00 0.00 0.00 0.00 0.00 0.00 0.00 0.00 0.00 0.00 0.00 0.00 0.00 0.00 0.00 0.00 0.00 0.00 0.00 0.00 0.00 0.00 0.00 0.00 0.00 0.00 0.00 0.00 0.00 0.00 0.00 0.00 0.00 0.00 0.00 0.00 0.00 0.00 0.00 0.00
0.00 0.00 0.00 0.00 0.00 0.00 0.00 0.00 0.00 0.00 0.00 0.00 0.00 0.00 0.00 0.00 0.00 0.00 0.00 0.00 0.00 0.00 0.00 0.00 0.00 0.00 0.00 0.00 0.00 0.00 0.00 0.00 0.00 0.00 0.00 0.00 0.00 0.00 0.00 0.00 0.00 0.00 0.00 0.00
0.00 0.00 0.00 0.00 0.00 0.00 0.00 0.00 0.00 0.00 0.00 0.00 0.00 0.00 0.00 0.00 0.00 0.00 0.00 0.00 0.00 0.00 0.00 0.00 0.00 0.00 0.00 0.00 0.00 0.00 0.00 0.00 0.00 0.00 0.00 0.00 0.00 0.00 0.00 0.00 0.00 0.00 0.00 0.00
0.00 0.00 0.00 0.00 0.00 0.00 0.00 0.00 0.00 0.00 0.00 0.00 0.00 0.00 0.00 0.00 0.00 0.00 0.00 0.00 0.00 0.00 0.00 0.00 0.00 0.00 0.00 0.00 0.00 0.00 0.00 0.00 0.00 0.00 0.00 0.00 0.00 0.00 0.00 0.00 0.00 0.00 0.00 0.00
0.00 0.00 0.00 0.00 0.00 0.00 0.00 0.00 0.00 0.00 0.00 0.00 0.00 0.00 0.00 0.00 0.00 0.00 0.00 0.00 0.00 0.00 0.00 0.00 0.00 0.00 0.00 0.00 0.00 0.00 0.00 0.00 0.00 0.00 0.00 0.00 0.00 0.00 0.00 0.00 0.00 0.00 0.00 0.00
0.00 0.00 0.00 0.00 0.00 0.00 0.00 0.00 0.00 0.00 0.00 0.00 0.00 0.00 0.00 0.00 0.00 0.00 0.00 0.00 0.00 0.00 0.00 0.00 0.00 0.00 0.00 0.00 0.00 0.00 0.00 0.00 0.00 0.00 0.00 0.00 0.00 0.00 0.00 0.00 0.00 0.00 0.00 0.00
0.00 0.00 0.00 0.00 0.00 0.00 0.00 0.00 0.00 0.00 0.00 0.00 0.00 0.00 0.00 0.00 0.00 0.00 0.00 0.00 0.00 0.00 0.00 0.00 0.00 0.00 0.00 0.00 0.00 0.00 0.00 0.00 0.00 0.00 0.00 0.00 0.00 0.00 0.00 0.00 0.00 0.00 0.00 0.00
0.00 0.00 0.00 0.00 0.00 0.00 0.00 0.00 0.00 0.00 0.00 0.00 0.00 0.00 0.00 0.00 0.00 0.00 0.00 0.00 0.00 0.00 0.00 0.00 0.00 0.00 0.00 0.00 0.00 0.00 0.00 0.00 0.00 0.00 0.00 0.00 0.00 0.00 0.00 0.00 0.00 0.00 0.00 0.00
0.00 0.00 0.01 0.00 0.00 0.00 0.00 0.00 0.00 0.00 0.00 0.00 0.00 0.00 0.00 0.00 0.00 0.00 0.00 0.00 0.00 0.00 0.00 0.00 0.00 0.00 0.00 0.00 0.00 0.00 0.00 0.00 0.00 0.00 0.00 0.00 0.00 0.00 0.00 0.00 0.00 0.00 0.00 0.00
0.00 0.00 0.00 0.00 0.00 0.00 0.00 0.00 0.00 0.00 0.00 0.00 0.00 0.00 0.00 0.00 0.00 0.00 0.00 0.00 0.00 0.00 0.00 0.00 0.00 0.00 0.00 0.00 0.00 0.00 0.00 0.00 0.00 0.00 0.00 0.00 0.00 0.00 0.00 0.00 0.00 0.00 0.00 0.00
0.00 0.00 0.00 0.00 0.00 0.00 0.00 0.00 0.00 0.00 0.00 0.00 0.00 0.00 0.00 0.00 0.00 0.00 0.00 0.00 0.00 0.00 0.00 0.00 0.00 0.00 0.00 0.00 0.00 0.00 0.00 0.00 0.00 0.00 0.00 0.00 0.00 0.00 0.00 0.00 0.00 0.00 0.00 0.00
0.00 0.00 0.00 0.00 0.00 0.00 0.00 0.00 0.00 0.00 0.00 0.00 0.00 0.00 0.00 0.00 0.00 0.00 0.00 0.00 0.00 0.00 0.00 0.00 0.00 0.00 0.00 0.00 0.00 0.00 0.00 0.00 0.00 0.00 0.00 0.00 0.00 0.00 0.00 0.00 0.00 0.00 0.00 0.00
0.00 0.00 0.00 0.00 0.00 0.00 0.00 0.00 0.00 0.00 0.00 0.00 0.00 0.00 0.00 0.00 0.00 0.00 0.00 0.00 0.00 0.00 0.00 0.00 0.00 0.00 0.00 0.00 0.00 0.00 0.00 0.00 0.00 0.00 0.00 0.00 0.00 0.00 0.00 0.00 0.00 0.00 0.00 0.00
0.00 0.00 0.00 0.00 0.00 0.00 0.00 0.00 0.00 0.00 0.00 0.00 0.00 0.00 0.00 0.00 0.00 0.00 0.00 0.00 0.00 0.00 0.00 0.00 0.00 0.00 0.00 0.00 0.00 0.00 0.00 0.00 0.00 0.00 0.00 0.00 0.00 0.00 0.00 0.00 0.00 0.00 0.00 0.00
0.00 0.00 0.00 0.00 0.00 0.00 0.00 0.00 0.00 0.00 0.00 0.00 0.00 0.00 0.00 0.00 0.00 0.00 0.00 0.00 0.00 0.00 0.00 0.00 0.00 0.00 0.00 0.00 0.00 0.00 0.00 0.00 0.00 0.00 0.00 0.00 0.00 0.00 0.00 0.00 0.00 0.00 0.00 0.00
MSLP
1018.47 1018.25 1018.15 1018.51 1018.80 1019.18 1019.39 1019.75 1019.92 1020.40 1020.29 1020.47 1020.51 1021.03 1022.12 1023.15 1023.71 1024.09 1024.64 1025.27 1025.49 1025.96 1026.10 1025.98 1025.95 1025.73 1025.63 1025.60 1025.52 1025.22 1024.91 1024.62 1024.15 1023.97 1023.87 1024.25 1024.30 1024.25 1024.50 1024.82 1024.89 1024.71 1024.54 1024.15
1018.76 1018.04 1018.29 1018.80 1019.10 1019.34 1019.41 1019.61 1019.88 1020.36 1020.42 1020.71 1020.84 1020.91 1021.98 1022.91 1023.27 1023.66 1024.18 1025.14 1025.39 1025.85 1026.02 1026.20 1026.24 1026.15 1025.86 1025.89 1025.99 1025.94 1025.57 1025.16 1024.68 1024.35 1024.35 1024.57 1024.75 1025.20 1025.33 1025.34 1025.57 1025.50 1025.25 1024.77
1017.98 1018.23 1018.54 1018.95 1019.15 1019.29 1019.28 1019.41 1019.67 1019.88 1020.48 1021.00 1021.01 1020.68 1021.52 1022.29 1023.10 1023.66 1024.10 1025.01 1025.45 1025.43 1026.06 1026.22 1026.51 1026.61 1026.44 1026.38 1026.50 1026.50 1026.23 1025.84 1025.50 1024.79 1024.63 1024.78 1025.06 1025.26 1025.66 1025.93 1025.97 1026.21 1026.03 1025.68
1018.36 1018.62 1018.58 1018.89 1018.82 1018.95 1018.82 1019.01 1019.46 1019.83 1020.23 1020.45 1020.78 1019.91 1020.10 1021.16 1022.16 1023.04 1023.63 1024.58 1024.99 1025.34 1025.98 1026.32 1026.61 1026.94 1027.12 1027.18 1027.05 1026.98 1026.90 1026.55 1026.18 1025.54 1025.17 1025.24 1025.51 1025.84 1026.48 1026.60 1026.68 1026.80 1026.69 1026.37
1018.07 1018.36 1018.59 1018.61 1018.41 1018.74 1018.58 1018.98 1019.24 1019.61 1019.82 1020.10 1020.34 1020.57 1018.98 1020.42 1021.02 1021.67 1022.56 1023.49 1024.28 1025.01 1025.57 1026.16 1026.80 1027.32 1027.53 1027.46 1027.31 1027.46 1027.59 1027.23 1026.77 1026.42 1025.89 1026.10 1026.22 1026.70 1026.97 1027.04 1027.11 1027.02 1027.11 1027.01
1018.40 1018.77 1018.59 1018.12 1018.48 1018.59 1018.75 1019.19 1019.49 1019.87 1019.81 1019.53 1019.22 1019.63 1018.04 1018.93 1018.82 1019.39 1021.28 1022.57 1023.55 1025.02 1025.40 1026.11 1026.83 1027.74 1027.87 1027.54 1027.62 1028.08 1028.00 1027.64 1027.59 1027.50 1026.92 1026.60 1026.81 1027.16 1027.30 1027.46 1027.47 1027.50 1027.51 1027.44
1018.61 1018.69 1018.60 1018.54 1018.48 1018.79 1018.85 1018.86 1019.14 1019.52 1019.70 1018.28 1018.39 1018.62 1017.04 1017.63 1018.24 1018.79 1019.67 1021.59 1023.21 1024.65 1025.40 1025.94 1026.75 1027.18 1027.83 1027.76 1028.45 1028.32 1028.07 1028.35 1028.52 1028.24 1027.73 1027.51 1027.75 1027.82 1028.03 1028.10 1028.22 1028.26 1028.29 1028.13
1017.67 1018.25 1018.11 1018.01 1017.51 1017.69 1018.14 1018.09 1017.81 1017.95 1018.30 1018.04 1018.42 1017.00 1016.33 1017.63 1018.54 1019.52 1019.88 1021.86 1023.30 1024.61 1025.60 1026.28 1026.76 1027.67 1027.89 1028.37 1028.60 1028.43 1028.78 1029.20 1028.96 1028.85 1028.70 1028.53 1028.48 1028.58 1028.80 1029.04 1029.05 1029.03 1029.13 1029.18
1017.18 1017.25 1017.83 1017.79 1017.67 1017.52 1017.96 1017.67 1017.75 1017.96 1018.67 1017.99 1016.47 1016.31 1016.60 1018.09 1019.04 1019.78 1020.74 1022.34 1023.36 1024.79 1025.86 1026.58 1027.17 1027.91 1028.44 1028.65 1028.58 1028.85 1029.37 1029.43 1029.47 1029.25 1029.25 1029.30 1029.30 1029.39 1029.64 1029.80 1029.83 1029.94 1029.91 1029.86
1016.95 1017.16 1017.82 1018.07 1017.93 1017.84 1017.31 1017.30 1017.90 1017.83 1017.29 1016.56 1015.41 1015.75 1015.90 1017.12 1018.43 1020.13 1021.29 1022.08 1023.42 1024.87 1025.76 1026.63 1027.50 1028.06 1028.71 1029.06 1029.43 1029.47 1029.60 1029.80 1029.81 1029.65 1029.56 1029.91 1030.06 1030.20 1030.41 1030.49 1030.53 1030.66 1030.66 1030.61
1017.26 1017.08 1018.36 1018.27 1017.15 1016.63 1017.34 1016.77 1016.75 1016.72 1016.40 1015.82 1015.27 1014.38 1014.77 1016.15 1017.26 1018.72 1020.62 1021.96 1023.30 1024.62 1025.57 1026.58 1027.64 1028.48 1029.02 1029.36 1029.63 1029.44 1029.77 1030.02 1030.07 1030.22 1030.27 1030.38 1030.54 1030.77 1031.05 1031.17 1031.21 1031.29 1031.18 1031.20
1017.27 1017.24 1017.65 1017.39 1017.45 1017.24 1016.26 1015.64 1015.81 1015.60 1015.97 1015.99 1015.67 1014.44 1015.16 1016.46 1017.55 1018.65 1020.28 1021.86 1023.22 1024.55 1025.63 1026.59 1027.69 1028.39 1028.89 1029.32 1029.48 1029.66 1030.05 1030.23 1030.37 1030.67 1030.83 1030.91 1031.10 1031.22 1031.45 1031.65 1031.74 1031.80 1031.70 1031.67
1016.74 1016.90 1017.26 1017.53 1017.82 1017.62 1016.49 1015.81 1015.52 1015.63 1015.97 1014.97 1015.26 1013.52 1015.14 1016.53 1017.58 1018.72 1020.13 1021.84 1023.23 1024.44 1025.60 1026.64 1027.48 1028.33 1028.79 1029.04 1029.36 1029.75 1030.10 1030.35 1030.74 1030.95 1031.17 1031.36 1031.51 1031.77 1031.93 1032.16 1032.19 1032.22 1032.13 1032.11
1016.72 1016.32 1015.79 1014.95 1014.91 1015.38 1016.13 1015.58 1015.52 1015.37 1015.05 1013.78 1012.37 1013.26 1014.52 1015.78 1017.06 1018.50 1019.99 1021.51 1022.84 1023.99 1025.28 1026.35 1027.17 1027.74 1028.27 1028.92 1029.15 1029.65 1030.08 1030.54 1030.95 1031.16 1031.44 1031.63 1031.83 1032.16 1032.39 1032.53 1032.46 1032.58 1032.59 1032.48
1017.26 1016.26 1016.09 1015.53 1015.54 1015.62 1015.19 1014.78 1014.81 1014.30 1012.15 1012.97 1011.22 1012.00 1012.40 1014.25 1015.93 1017.34 1019.13 1020.88 1022.28 1023.45 1024.61 1025.55 1026.25 1026.99 1027.69 1028.46 1029.20 1029.69 1030.13 1030.61 1031.03 1031.24 1031.54 1031.91 1032.25 1032.49 1032.67 1032.77 1032.85 1033.05 1033.04 1032.99
1017.40 1016.48 1016.36 1015.90 1015.92 1015.92 1015.37 1014.62 1013.84 1012.64 1012.34 1011.43 1011.87 1010.67 1012.83 1013.86 1015.22 1016.96 1018.11 1019.75 1021.02 1022.01 1023.20 1024.36 1025.38 1026.38 1027.20 1027.97 1028.76 1029.38 1029.95 1030.49 1030.99 1031.26 1031.78 1032.21 1032.50 1032.75 1032.97 1033.10 1033.28 1033.36 1033.40 1033.49
1017.34 1016.98 1016.93 1015.39 1015.57 1015.97 1015.51 1011.95 1012.12 1011.82 1011.52 1010.59 1010.83 1009.06 1012.43 1013.89 1014.82 1015.40 1016.90 1018.21 1019.00 1020.12 1021.69 1023.11 1024.33 1025.50 1026.54 1027.46 1028.27 1028.98 1029.67 1030.46 1030.95 1031.46 1031.98 1032.33 1032.64 1032.89 1033.13 1033.31 1033.42 1033.56 1033.72 1033.92
1016.40 1016.44 1016.24 1015.22 1015.82 1014.22 1009.88 1011.06 1010.68 1010.80 1010.29 1010.20 1009.40 1010.23 1011.15 1011.73 1012.80 1014.02 1015.16 1016.00 1017.66 1019.07 1020.54 1021.95 1023.24 1024.65 1025.95 1027.02 1027.99 1028.79 1029.67 1030.35 1030.89 1031.45 1031.94 1032.36 1032.65 1032.95 1033.26 1033.47 1033.69 1033.88 1033.99 1034.10
1015.57 1015.64 1015.22 1014.58 1013.62 1011.85 1010.36 1010.32 1010.22 1009.76 1008.18 1009.16 1008.48 1009.48 1010.47 1011.92 1013.25 1013.15 1014.16 1015.06 1015.51 1017.18 1019.14 1020.85 1022.50 1023.89 1025.37 1026.58 1027.67 1028.67 1029.60 1030.24 1030.82 1031.34 1031.82 1032.30 1032.61 1032.95 1033.33 1033.60 1033.85 1034.05 1034.16 1034.25
1014.71 1014.56 1014.63 1013.75 1012.52 1010.77 1006.50 1009.41 1010.10 1010.59 1008.32 1006.48 1007.54 1007.98 1009.22 1011.51 1012.42 1008.40 1012.11 1013.63 1015.19 1016.93 1018.56 1020.00 1021.80 1023.40 1024.80 1026.06 1027.29 1028.34 1029.20 1029.92 1030.49 1031.14 1031.78 1032.32 1032.72 1033.02 1033.32 1033.70 1034.00 1034.24 1034.23 1034.41
1013.70 1013.34 1012.83 1012.20 1011.44 1010.25 1008.16 1008.76 1009.54 1010.20 1006.13 1005.27 1005.71 1006.15 1008.25 1009.11 1006.75 1008.49 1010.17 1012.97 1014.64 1016.23 1018.07 1019.91 1021.35 1022.64 1024.07 1025.58 1026.78 1027.80 1028.77 1029.45 1030.22 1031.19 1031.93 1032.51 1032.89 1033.17 1033.42 1033.79 1034.12 1034.28 1034.47 1034.67
1012.99 1012.37 1011.47 1011.32 1010.43 1009.61 1008.21 1009.25 1007.76 1006.03 1006.32 1006.59 1006.65 1006.65 1007.30 1007.58 1008.62 1009.74 1010.77 1012.38 1014.03 1015.44 1017.46 1019.29 1020.93 1022.35 1023.93 1025.17 1026.19 1027.34 1028.36 1029.29 1030.38 1031.27 1032.03 1032.64 1033.06 1033.37 1033.66 1033.91 1034.21 1034.46 1034.61 1034.71
1013.45 1012.09 1010.97 1009.02 1007.34 1007.03 1006.94 1006.45 1006.42 1006.62 1006.96 1007.28 1007.44 1007.27 1007.39 1008.57 1009.57 1010.40 1011.47 1012.85 1014.18 1015.72 1017.46 1019.16 1020.56 1022.10 1023.78 1024.92 1025.75 1026.88 1028.05 1029.28 1030.31 1031.29 1032.10 1032.70 1033.16 1033.42 1033.69 1033.93 1034.20 1034.35 1034.48 1034.47
1012.30 1012.09 1011.72 1009.73 1007.02 1006.91 1007.10 1007.22 1006.90 1006.76 1007.04 1007.58 1007.89 1007.82 1008.22 1008.90 1009.99 1010.97 1011.90 1013.21 1014.50 1016.02 1017.43 1018.77 1020.21 1021.69 1023.23 1024.51 1025.53 1026.50 1027.91 1029.07 1030.20 1031.16 1031.97 1032.56 1032.96 1033.37 1033.74 1033.86 1034.01 1034.03 1034.10 1034.17
1011.03 1011.83 1010.80 1009.93 1008.07 1007.79 1007.45 1006.67 1006.40 1006.91 1007.47 1008.02 1008.37 1008.54 1008.75 1009.54 1010.62 1011.39 1012.46 1013.47 1014.64 1015.96 1017.29 1018.34 1019.46 1020.96 1022.54 1024.08 1025.38 1026.59 1027.67 1028.80 1029.93 1030.86 1031.56 1032.12 1032.62 1033.07 1033.36 1033.57 1033.70 1033.78 1033.90 1033.83
1011.01 1009.01 1009.22 1008.53 1008.40 1008.35 1007.58 1007.17 1007.29 1006.95 1007.14 1007.94 1008.54 1009.24 1009.55 1009.85 1010.81 1011.91 1012.82 1013.68 1014.54 1015.83 1017.04 1018.29 1019.55 1020.94 1022.53 1023.95 1025.27 1026.46 1027.46 1028.43 1029.45 1030.44 1031.15 1031.60 1032.11 1032.65 1032.91 1033.13 1033.52 1033.70 1033.81 1033.90
Thickness
5582 5585 5582 5588 5593 5594 5596 5593 5593 5590 5600 5601 5610 5613 5599 5596 5598 5600 5601 5598 5600 5598 5599 5603 5604 5608 5611 5612 5613 5616 5618 5619 5623 5623 5622 5618 5616 5615 5610 5606 5604 5603 5602 5602
5575 5579 5587 5587 5588 5586 5589 5588 5589 5589 5592 5591 5593 5602 5595 5590 5596 5600 5599 5594 5594 5592 5594 5594 5595 5598 5603 5604 5603 5604 5607 5609 5612 5614 5612 5609 5607 5602 5599 5597 5593 5591 5591 5591
5577 5579 5582 5579 5579 5579 5583 5584 5582 5586 5586 5579 5584 5595 5589 5589 5586 5589 5591 5588 5587 5589 5585 5587 5586 5587 5590 5592 5592 5593 5595 5598 5599 5602 5603 5601 5597 5595 5591 5587 5584 5579 5578 5577
5571 5572 5574 5573 5576 5581 5578 5585 5583 5581 5581 5578 5584 5593 5592 5596 5586 5584 5584 5580 5582 5580 5577 5577 5578 5577 5577 5577 5580 5582 5581 5585 5586 5589 5592 5591 5588 5584 5577 5574 5570 5567 5566 5565
5572 5568 5567 5569 5575 5578 5580 5580 5579 5579 5578 5577 5576 5575 5616 5591 5590 5591 5589 5582 5580 5577 5574 5570 5568 5564 5564 5567 5571 5569 5568 5571 5573 5575 5580 5577 5574 5570 5565 5563 5560 5558 5555 5552
5562 5558 5568 5576 5572 5573 5574 5571 5569 5566 5571 5562 5584 5579 5609 5595 5607 5608 5592 5584 5578 5567 5567 5561 5557 5552 5553 5558 5559 5556 5557 5559 5559 5560 5565 5566 5563 5558 5555 5552 5550 5547 5543 5540
5550 5552 5557 5562 5563 5562 5565 5565 5552 5555 5553 5576 5581 5578 5610 5607 5604 5607 5603 5585 5572 5562 5556 5555 5551 5549 5546 5547 5544 5545 5548 5545 5544 5546 5550 5552 5548 5546 5541 5539 5536 5533 5530 5528
5552 5547 5556 5562 5571 5566 5563 5568 5565 5554 5560 5576 5563 5583 5610 5588 5580 5580 5591 5575 5562 5551 5547 5542 5541 5536 5535 5533 5532 5534 5531 5529 5533 5533 5534 5535 5533 5531 5528 5523 5522 5520 5516 5513
5552 5557 5549 5554 5559 5568 5558 5556 5570 5557 5536 5558 5589 5593 5598 5566 5563 5571 5570 5556 5551 5541 5535 5530 5527 5524 5523 5523 5524 5523 5520 5519 5519 5520 5520 5518 5519 5517 5514 5510 5507 5505 5502 5500
5548 5547 5541 5542 5549 5550 5560 5566 5548 5552 5549 5559 5588 5586 5605 5584 5575 5555 5550 5551 5544 5533 5528 5521 5516 5513 5511 5510 5509 5510 5509 5506 5507 5509 5510 5507 5505 5502 5498 5497 5494 5492 5490 5487
5534 5540 5526 5531 5545 5558 5549 5553 5557 5561 5565 5563 5571 5600 5606 5596 5586 5567 5553 5546 5538 5527 5522 5517 5509 5503 5500 5498 5497 5500 5499 5499 5499 5497 5497 5495 5493 5490 5486 5484 5482 5480 5479 5475
5525 5526 5522 5533 5532 5537 5559 5563 5561 5554 5548 5555 5564 5587 5575 5570 5569 5566 5552 5539 5530 5522 5516 5509 5501 5496 5494 5492 5492 5492 5491 5490 5489 5486 5484 5484 5482 5480 5476 5474 5471 5468 5466 5463
5521 5510 5517 5513 5521 5521 5533 5547 5557 5558 5543 5555 5552 5592 5560 5557 5557 5553 5545 5531 5520 5514 5506 5500 5494 5490 5489 5488 5487 5485 5483 5482 5479 5477 5476 5474 5472 5469 5466 5462 5459 5456 5454 5450
5506 5517 5527 5541 5554 5548 5532 5540 5545 5549 5541 5560 5579 5586 5578 5558 5552 5542 5535 5525 5516 5509 5501 5495 5491 5489 5485 5481 5482 5479 5476 5474 5471 5470 5467 5465 5463 5458 5454 5451 5448 5444 5440 5437
5492 5504 5515 5527 5527 5524 5534 5538 5536 5541 5574 5557 5591 5584 5598 5579 5557 5547 5534 5522 5512 5505 5499 5493 5489 5485 5482 5478 5473 5471 5468 5466 5463 5461 5459 5455 5451 5447 5443 5440 5436 5431 5426 5422
5480 5494 5494 5499 5510 5492 5501 5520 5537 5553 5558 5568 5568 5587 5573 5569 5564 5543 5535 5522 5516 5511 5503 5496 5490 5484 5479 5474 5469 5465 5462 5459 5455 5453 5448 5444 5440 5436 5432 5427 5422 5418 5413 5407
5466 5475 5475 5501 5504 5476 5469 5535 5540 5549 5554 5570 5559 5601 5549 5546 5547 5551 5537 5528 5524 5518 5507 5498 5491 5483 5477 5471 5465 5461 5457 5451 5447 5443 5438 5434 5430 5426 5420 5415 5411 5406 5399 5392
5454 5460 5469 5487 5466 5467 5556 5544 5553 5544 5551 5558 5572 5571 5571 5576 5560 5551 5542 5536 5527 5518 5510 5501 5492 5482 5473 5466 5460 5455 5448 5443 5438 5433 5429 5424 5420 5414 5409 5403 5398 5392 5386 5379
5463 5459 5467 5473 5476 5507 5529 5525 5538 5544 5564 5560 5573 5570 5569 5538 5535 5550 5546 5542 5542 5529 5513 5500 5488 5480 5470 5461 5453 5446 5439 5434 5429 5425 5420 5415 5410 5404 5398 5392 5385 5379 5373 5367
5456 5461 5457 5468 5474 5490 5572 5537 5515 5523 5538 5587 5572 5574 5569 5532 5548 5612 5554 5543 5536 5523 5509 5498 5485 5475 5465 5456 5446 5438 5432 5427 5422 5417 5410 5404 5398 5393 5387 5379 5372 5365 5361 5355
5444 5451 5455 5469 5473 5492 5534 5511 5518 5511 5580 5579 5582 5580 5555 5552 5598 5580 5556 5536 5527 5514 5501 5489 5480 5471 5461 5449 5441 5433 5426 5421 5415 5406 5399 5391 5385 5379 5373 5366 5359 5354 5348 5342
5443 5455 5463 5469 5471 5484 5506 5499 5531 5568 5539 5538 5542 5559 5558 5559 5543 5541 5537 5527 5518 5509 5495 5484 5470 5461 5449 5440 5434 5426 5419 5412 5403 5394 5386 5379 5372 5366 5359 5353 5347 5341 5337 5333
5412 5440 5468 5480 5507 5500 5509 5533 5526 5514 5527 5522 5525 5532 5545 5532 5524 5523 5518 5511 5503 5495 5483 5472 5464 5452 5439 5432 5427 5420 5412 5401 5392 5382 5374 5366 5359 5354 5347 5342 5336 5332 5329 5327
5400 5389 5405 5451 5485 5484 5486 5488 5494 5503 5513 5509 5510 5519 5519 5519 5511 5507 5504 5497 5490 5481 5472 5464 5455 5444 5433 5425 5419 5413 5401 5391 5380 5372 5363 5356 5349 5342 5335 5331 5327 5326 5323 5319
5404 5381 5396 5410 5458 5456 5466 5489 5500 5491 5492 5491 5493 5498 5506 5503 5496 5493 5487 5483 5478 5470 5461 5456 5449 5439 5429 5419 5410 5400 5391 5381 5371 5362 5355 5348 5341 5333 5328 5324 5321 5319 5315 5312
5368 5419 5413 5426 5438 5447 5472 5472 5469 5480 5484 5481 5480 5477 5483 5489 5483 5478 5475 5471 5468 5459 5453 5446 5439 5431 5419 5409 5399 5389 5381 5372 5363 5353 5345 5339 5333 5326 5323 5320 5315 5311 5307 5303